#timestamp,LO_Frequency,Hit,StdDev 
1578220855.9,286046894.7,P
1578220875.7,286046894.7,P
1578220895.6,286046897.2,P
1578220915.4,286046896.4,Y
1578220935.2,286047001.1,P
1578220955.1,286046999.4,N
1578220956.0,286046999.4,N
1578220975.8,286046997.2,N
1578220995.7,286046997.6,N
1578221015.5,286046993.8,N
1578221035.3,286046994.3,N
1578221055.2,286046992.8,N
1578221075.0,286046991.3,N
1578221075.9,286046991.3,N
1578221095.7,286046992.2,N
1578221115.6,286046992.2,N
1578221135.4,286046991.6,N
1578221155.3,286046990.0,N
1578221175.1,286046989.7,N
1578221176.0,286046989.7,N
1578221195.8,286046986.9,N
1578221215.7,286046985.8,N
1578221235.5,286046983.8,N
1578221255.4,286046986.4,N
1578221275.2,286046982.6,N
1578221295.0,286046983.6,N
1578221295.9,286046983.6,N
1578221315.8,286046981.5,N
1578221335.6,286046980.8,N
1578221355.4,286046983.2,N
1578221375.3,286046981.2,N
1578221395.1,286046981.5,N
1578221415.8,286046979.1,N
1578221435.7,286046977.5,N
1578221455.5,286046978.7,Y
1578221475.4,286046985.4,P
1578221495.2,286046985.8,P
1578221515.0,286046983.9,P
1578221515.9,286046983.9,Y
1578221535.8,286046997.9,P
1578221555.6,286046993.4,N
1578221575.5,286046991.8,N
1578221595.3,286046990.4,N
1578221615.1,286046988.7,N
1578221635.9,286046989.2,N
1578221655.7,286046989.0,Y
1578221675.5,286046999.0,P
1578221695.4,286046999.0,N
1578221715.2,286046999.1,N
1578221735.1,286046996.5,N
1578221736.0,286046996.5,N
1578221755.8,286046996.7,N
1578221775.6,286046995.2,N
1578221795.5,286046996.1,N
1578221815.3,286046993.5,N
1578221835.1,286046994.3,N
1578221855.9,286046992.3,Y
1578221875.7,286046996.6,P
1578221895.6,286046995.8,P
1578221915.4,286046993.3,P
1578221935.2,286046995.7,Y
1578221955.1,286047000.3,P
1578221956.0,286047000.3,N
1578221975.8,286047000.5,N
1578221995.7,286047000.9,N
